Location: Be Tobo
(6.6442°N, 10.6239°W)
Time: 01:14:56
(UTC+00:00)

BLOCK DM-SL R/B - Pass Details

Date: 18 September 2020
Orbit: 228 x 27862 km, 0.2° (Epoch: 21 October)

Event Time Altitude Azimuth Distance (km) Brightness Sun altitude
Rises 18:36:21 0° 253° (WSW) 2,423 6.3 0.2°
Reaches altitude 10° 18:37:36 10° 246° (WSW) 1,883 5.4 -0.1°
Maximum altitude 18:41:22 51° 167° (SSE) 1,398 3.3 -1.1°
Drops below altitude 10° 19:01:56 10° 96° (E) 9,367 6.8 -6.2°
Enters shadow 19:06:25 - 95° (E) 10,862 7.1 -7.3°
